[[{"header":{"parameterUnit":"m.s-1","parameterCategory":1,"la1":30.2991,"la2":30.254,"lo1":-89.0895,"lo2":-89.0444,"dy":0.0017,"dx":0.0017,"nx":28,"ny":28,"refTime":"2023-09-12T21:00:00:Z","depth":0,"parameterNumber":2,"parameterNumberName":"U-component_of_WINDS"},"data":[0,0,0,0,0,0,0,0,0,0,0,0,0,0,0,0,0,0,0,0,0,0,0,0,0,0,0,0,0,0,0,0,0,0,0,0,0,0,0,0,0,0,0,0,0,0,0,0,0,0,0,0,0,0,0,0,0,0,-0.001,-0.0009,0,0.014,0.0142,0.0144,0.0188,0.0187,0.0186,0.0185,0.0336,0.0341,0.0346,0,0,0,0,0,0,0,0,0,0,0,0,0,-0.0261,-0.0257,-0.0011,-0.0009,-0.0007,0.014,0.0142,0.0144,0.0188,0.0187,0.0186,0.0185,0.0335,0.034,0.0346,0,0,0,0,0,0,0,0,0,0,0,0,0,-0.0136,-0.0255,-0.0011,0.0033,0.0038,0.014,0.0142,0.0145,0.0188,0.0187,0.0186,0.0184,0.0333,0.034,0.0347,0.0415,0,0,0.0369,0.0372,0,0,0,0,0,0,0,0,-0.0143,-0.0127,0.0024,0.003,0.0036,0.0144,0.0109,0.0235,0.0188,0.0131,0.0185,0.0184,0.0273,0.0285,0.0316,0.0422,0.0428,0.0369,0.0374,0.0377,0.0379,0,0,0,0,0,0,0,-0.0152,-0.0133,0.0049,0.0027,0.0034,0.0045,0.0061,0.0133,0.0207,0.0136,0.0139,0.0157,0.0276,0.0309,0.032,0.043,0.0369,0.0375,0.038,0.0383,0.0604,0.0605,0,0,0,0,0,0,-0.0167,-0.014,0.0044,0.0054,-0.0058,0.005,0.0069,0.011,0.0206,0.022,0.0158,0.0158,0.0297,0.0311,0.0325,0.0413,0.0377,0.0383,0.0387,0.0602,0.0604,0.0606,0,0,0,0,0,0,-0.0173,-0.0151,0.0038,-0.0042,-0.0017,0.0056,0.0102,0.0114,0.0147,0.0223,0.0236,0.0178,0.0297,0.0315,0.0393,0.0419,0.0386,0.0393,0.06,0.0603,0.0605,0.0588,0,0,0,0,0,0,-0.018,-0.0154,-0.0128,-0.0042,-0.0013,0.0104,0.0104,0.0118,0.016,0.0162,0.0245,0.0258,0.0297,0.0382,0.04,0.0428,0.0399,0.0598,0.0602,0.0604,0.0587,0.059,0.0593,0,0,0,0,0,-0.019,-0.014,-0.0126,-0.0104,0.0021,0.0105,0.0121,0.0167,0.0161,0.0189,0.0238,0.0255,0.0414,0.039,0.0411,0.0441,0.0597,0.0601,0.0604,0.0586,0.0589,0.0592,0,0,0,0,0,0,-0.0227,-0.0128,-0.0112,-0.0033,0.0028,0.0112,0.0148,0.0169,0.0231,0.023,0.0284,0.0302,0.0377,0.0417,0.0389,0.0514,0.0506,0.0514,0.0485,0.0489,0.0492,0.048,0.0405,0,0,0,0,0,-0.0225,-0.0165,-0.0082,-0.0021,0.0009,0.0073,0.0111,0.0142,0.0206,0.0232,0.0287,0.0348,0.0412,0.0453,0.0516,0.0594,0.0613,0.0625,0.0628,0.063,0.0636,0.0683,0.069,0.0618,0.0618,0.0618,0,0,-0.0223,-0.0161,-0.0127,-0.0026,0.0024,0.0086,0.0094,0.0158,0.0205,0.0241,0.0319,0.0362,0.0434,0.0513,0.0551,0.0549,0.066,0.0634,0.0635,0.064,0.0687,0.0694,0.07,0.062,0.062,0.0619,0,0,-0.0187,-0.0134,-0.0076,-0.0024,0.0054,0.0097,0.0111,0.0194,0.0224,0.0304,0.0334,0.039,0.0498,0.0549,0.0589,0.0651,0.0669,0.067,0.0684,0.0729,0.0735,0.074,0.0763,0.0771,0.0675,0.0675,0.0675,0,-0.0194,-0.0099,-0.0049,0.0015,0.0059,0.0098,0.0159,0.0206,0.0299,0.0329,0.0326,0.0466,0.0517,0.061,0.0626,0.0657,0.0675,0.066,0.073,0.0736,0.0741,0.0764,0.0773,0.0675,0.0675,0.0675,0.0675,0,-0.0111,-0.0045,-0.0007,0.0085,0.0134,0.0195,0.0256,0.0299,0.0327,0.037,0.0453,0.0516,0.0594,0.0619,0.0644,0.0717,0.0713,0.0719,0.0712,0.0747,0.077,0.0779,0.0675,0.0675,0.0675,0.0675,0,0,-0.0098,0.0026,0.0039,0.0083,0.0174,0.0225,0.029,0.0368,0.0405,0.0469,0.0525,0.0619,0.0627,0.0672,0.0705,0.0745,0.0792,0.0747,0.0749,0.0754,0.0878,0.0873,0.0882,0.0806,0.0807,0.0809,0.0872,0,-0.0049,0.0069,0.0118,0.0213,0.0276,0.0316,0.0373,0.0435,0.0478,0.0538,0.0586,0.0652,0.0656,0.0684,0.0726,0.0777,0.0818,0.0774,0.0859,0.0861,0.0839,0.0893,0.0887,0.0944,0.0881,0.0883,0.0884,0,0.0022,0.009,0.0192,0.0279,0.0307,0.0357,0.0435,0.0491,0.0563,0.0593,0.0646,0.0678,0.0748,0.0738,0.0837,0.0806,0.0844,0.0875,0.0878,0.0887,0.0874,0.0905,0.0963,0.0971,0.0898,0.0897,0.0896,0,0.0023,0.014,0.0217,0.0253,0.0356,0.0391,0.0435,0.0507,0.0552,0.062,0.0651,0.0725,0.0766,0.0823,0.0875,0.0862,0.097,0.0963,0.0996,0.0995,0.1016,0.1014,0.1081,0.104,0.104,0.104,0.104,0,0.0071,0.0132,0.022,0.0266,0.0337,0.0395,0.0463,0.051,0.0574,0.0632,0.0671,0.0724,0.0789,0.0851,0.0892,0.0969,0.0987,0.1013,0.1023,0.1009,0.1006,0.1034,0.1032,0.1042,0.1042,0.1041,0.1041,0,0.0083,0.0144,0.0231,0.0324,0.0348,0.0396,0.0475,0.0523,0.0571,0.0644,0.0664,0.0738,0.0813,0.0871,0.0968,0.0996,0.1078,0.1088,0.1053,0.1059,0.1089,0.1086,0.1177,0.1193,0.1141,0.1141,0.1142,0,0.011,0.0159,0.0258,0.03,0.0345,0.0412,0.046,0.052,0.0568,0.0657,0.0694,0.0773,0.0839,0.0958,0.102,0.1096,0.1109,0.1136,0.112,0.1106,0.111,0.1107,0.1113,0.1137,0.1137,0.1137,0.1138,0,0.0151,0.0181,0.0248,0.0328,0.0385,0.045,0.0515,0.0548,0.0619,0.0672,0.0751,0.0802,0.0904,0.0982,0.1065,0.1111,0.1137,0.1143,0.1155,0.1141,0.112,0.1133,0.1059,0.114,0.114,0.1139,0.1139,0.1139,0.0172,0.0219,0.0297,0.0372,0.0429,0.0491,0.0542,0.0597,0.0664,0.0753,0.0784,0.0866,0.0941,0.1055,0.1102,0.1168,0.1168,0.1185,0.1189,0.1193,0.1192,0.111,0.1183,0.1183,0.1183,0.1183,0.1183,0,0.0217,0.027,0.0339,0.0432,0.0492,0.0514,0.0589,0.0638,0.071,0.0778,0.0844,0.0936,0.1014,0.1084,0.1164,0.1203,0.1217,0.1222,0.122,0.1231,0.1186,0.1168,0.121,0.121,0.121,0.121,0.121,0.121,0.0247,0.0327,0.0366,0.0476,0.053,0.0612,0.0653,0.0711,0.0766,0.0868,0.0934,0.098,0.105,0.1137,0.1209,0.1228,0.1256,0.1258,0.128,0.1237,0.1233,0.123,0.1214,0.1264,0.1264,0.1319,0.132,0.132]},{"header":{"parameterUnit":"m.s-1","parameterCategory":1,"la1":30.2991,"la2":30.254,"lo1":-89.0895,"lo2":-89.0444,"dy":0.0017,"dx":0.0017,"nx":28,"ny":28,"refTime":"2023-09-12T21:00:00:Z","depth":0,"parameterNumber":3,"parameterNumberName":"V-component_of_WINDS"},"data":[0,0,0,0,0,0,0,0,0,0,0,0,0,0,0,0,0,0,0,0,0,0,0,0,0,0,0,0,0,0,0,0,0,0,0,0,0,0,0,0,0,0,0,0,0,0,0,0,0,0,0,0,0,0,0,0,0,0,-2.6738,-2.6736,0,-2.6529,-2.6527,-2.6524,-2.6439,-2.6439,-2.644,-2.644,-2.6213,-2.6207,-2.62,0,0,0,0,0,0,0,0,0,0,0,0,0,-2.7051,-2.7046,-2.6738,-2.6736,-2.6733,-2.653,-2.6527,-2.6524,-2.6439,-2.6439,-2.644,-2.6441,-2.6215,-2.6207,-2.62,0,0,0,0,0,0,0,0,0,0,0,0,0,-2.6885,-2.7044,-2.6739,-2.6667,-2.6658,-2.653,-2.6527,-2.6523,-2.6439,-2.6439,-2.644,-2.6441,-2.6218,-2.6208,-2.6198,-2.6123,0,0,-2.6169,-2.6164,0,0,0,0,0,0,0,0,-2.6895,-2.6874,-2.668,-2.6671,-2.6661,-2.6511,-2.6553,-2.6388,-2.6439,-2.6521,-2.644,-2.6441,-2.6311,-2.6293,-2.6252,-2.6112,-2.6102,-2.6168,-2.6162,-2.6158,-2.6155,0,0,0,0,0,0,0,-2.6907,-2.6882,-2.6655,-2.6677,-2.6666,-2.664,-2.6618,-2.6522,-2.6414,-2.6514,-2.6508,-2.6485,-2.6306,-2.6262,-2.6246,-2.6099,-2.6168,-2.6159,-2.6153,-2.6149,-2.5885,-2.5884,0,0,0,0,0,0,-2.6932,-2.6893,-2.6662,-2.6649,-2.6783,-2.6634,-2.6609,-2.6558,-2.6415,-2.6394,-2.6484,-2.6482,-2.6278,-2.6257,-2.6238,-2.6139,-2.6158,-2.6148,-2.6143,-2.5887,-2.5885,-2.5884,0,0,0,0,0,0,-2.6939,-2.6912,-2.667,-2.6769,-2.6736,-2.6628,-2.6572,-2.6554,-2.651,-2.6393,-2.6371,-2.646,-2.6278,-2.6251,-2.6153,-2.613,-2.6144,-2.6135,-2.5888,-2.5886,-2.5885,-2.5941,0,0,0,0,0,0,-2.6948,-2.6915,-2.6888,-2.6769,-2.6731,-2.6592,-2.6571,-2.6549,-2.6495,-2.6489,-2.6364,-2.6344,-2.6276,-2.6168,-2.6143,-2.6116,-2.6127,-2.5889,-2.5887,-2.5885,-2.5941,-2.5941,-2.5942,0,0,0,0,0,-2.696,-2.6909,-2.6887,-2.686,-2.6696,-2.6591,-2.6569,-2.6497,-2.6493,-2.6463,-2.6388,-2.6348,-2.6137,-2.6159,-2.613,-2.61,-2.589,-2.5888,-2.5885,-2.594,-2.5941,-2.5942,0,0,0,0,0,0,-2.7023,-2.6892,-2.6866,-2.6777,-2.6697,-2.6577,-2.6537,-2.65,-2.6415,-2.6413,-2.6322,-2.6295,-2.6203,-2.6141,-2.6168,-2.6019,-2.601,-2.6002,-2.6062,-2.6062,-2.6063,-2.6078,-2.6119,0,0,0,0,0,-2.7028,-2.6958,-2.6846,-2.6777,-2.6739,-2.6646,-2.6597,-2.6549,-2.646,-2.6424,-2.6341,-2.6253,-2.6166,-2.6111,-2.6025,-2.5932,-2.5902,-2.5897,-2.5898,-2.59,-2.5892,-2.5837,-2.5833,-2.5876,-2.5876,-2.5876,0,0,-2.7033,-2.6954,-2.6914,-2.6788,-2.672,-2.6646,-2.6617,-2.6539,-2.6482,-2.641,-2.6313,-2.625,-2.6145,-2.6049,-2.6002,-2.5995,-2.5875,-2.5896,-2.5898,-2.589,-2.5834,-2.583,-2.5827,-2.5874,-2.5874,-2.5874,0,0,-2.7007,-2.6942,-2.6878,-2.6811,-2.6711,-2.6649,-2.6634,-2.6521,-2.6478,-2.638,-2.6325,-2.6253,-2.6107,-2.6035,-2.5979,-2.5928,-2.5887,-2.5903,-2.5905,-2.5852,-2.5849,-2.5846,-2.5825,-2.5819,-2.5896,-2.5896,-2.5896,0,-2.7026,-2.6917,-2.6848,-2.6774,-2.6719,-2.6657,-2.6588,-2.6526,-2.6401,-2.6362,-2.6357,-2.6173,-2.6098,-2.5984,-2.5972,-2.593,-2.5906,-2.5915,-2.5856,-2.5852,-2.5847,-2.5827,-2.582,-2.5899,-2.5899,-2.5898,-2.5898,0,-2.6945,-2.687,-2.6829,-2.6716,-2.6656,-2.6585,-2.6501,-2.6449,-2.6406,-2.6345,-2.6245,-2.6153,-2.6048,-2.6018,-2.5973,-2.5897,-2.5895,-2.5875,-2.5864,-2.5847,-2.5826,-2.5818,-2.5902,-2.5901,-2.5901,-2.59,0,0,-2.6948,-2.6801,-2.6787,-2.6734,-2.662,-2.6558,-2.6484,-2.6386,-2.6342,-2.6258,-2.6191,-2.607,-2.6051,-2.5988,-2.5935,-2.5889,-2.5853,-2.5873,-2.5869,-2.5871,-2.5761,-2.5775,-2.5768,-2.5827,-2.5825,-2.5824,-2.5769,0,-2.6905,-2.6775,-2.6711,-2.6606,-2.6534,-2.6475,-2.641,-2.6331,-2.6272,-2.6199,-2.6131,-2.6047,-2.6029,-2.599,-2.5943,-2.5868,-2.5829,-2.5871,-2.5759,-2.5756,-2.5785,-2.5757,-2.5771,-2.5724,-2.576,-2.5759,-2.5758,0,-2.6836,-2.6758,-2.6648,-2.6544,-2.6511,-2.6454,-2.6359,-2.6292,-2.62,-2.616,-2.6092,-2.6041,-2.5957,-2.5956,-2.5837,-2.5867,-2.5818,-2.5774,-2.577,-2.5754,-2.5754,-2.5737,-2.5707,-2.5699,-2.5745,-2.5746,-2.5747,0,-2.6847,-2.6715,-2.6632,-2.6589,-2.6465,-2.6427,-2.6372,-2.6282,-2.6227,-2.6143,-2.6106,-2.6012,-2.5959,-2.5886,-2.581,-2.5816,-2.5698,-2.569,-2.5658,-2.566,-2.5633,-2.5635,-2.5591,-2.5607,-2.5607,-2.5607,-2.5607,0,-2.6803,-2.6737,-2.6635,-2.6584,-2.6508,-2.6434,-2.6359,-2.63,-2.6221,-2.6153,-2.6096,-2.6033,-2.5939,-2.5863,-2.5803,-2.5713,-2.5689,-2.5652,-2.5636,-2.5655,-2.566,-2.5619,-2.5619,-2.5605,-2.5605,-2.5606,-2.5606,0,-2.6801,-2.6731,-2.6636,-2.6529,-2.6501,-2.6449,-2.6355,-2.63,-2.6241,-2.6156,-2.6132,-2.6035,-2.5944,-2.5863,-2.574,-2.5699,-2.5606,-2.5588,-2.5638,-2.5629,-2.5601,-2.5604,-2.5527,-2.5512,-2.5541,-2.5541,-2.5541,0,-2.6777,-2.6725,-2.6615,-2.6568,-2.6517,-2.6442,-2.6388,-2.6313,-2.6258,-2.6151,-2.6109,-2.6015,-2.5934,-2.5791,-2.5706,-2.5612,-2.5589,-2.5569,-2.5574,-2.5595,-2.5586,-2.5589,-2.5582,-2.5568,-2.5569,-2.5569,-2.5569,0,-2.6739,-2.6708,-2.6634,-2.6548,-2.6486,-2.6413,-2.6339,-2.6303,-2.6213,-2.6154,-2.6062,-2.6001,-2.5879,-2.5784,-2.5682,-2.5621,-2.5578,-2.5569,-2.5556,-2.5573,-2.5603,-2.5584,-2.5637,-2.557,-2.5569,-2.5569,-2.5569,-2.5569,-2.6722,-2.6674,-2.659,-2.6509,-2.6447,-2.6379,-2.6323,-2.6258,-2.6182,-2.608,-2.604,-2.5946,-2.5855,-2.5713,-2.5653,-2.5576,-2.5568,-2.555,-2.5545,-2.5541,-2.5543,-2.562,-2.5557,-2.5557,-2.5557,-2.5557,-2.5557,0,-2.668,-2.6624,-2.6551,-2.6451,-2.6387,-2.636,-2.6276,-2.6223,-2.6143,-2.6064,-2.5989,-2.5883,-2.5792,-2.5703,-2.5606,-2.5562,-2.554,-2.5538,-2.5539,-2.5525,-2.5557,-2.5577,-2.5558,-2.5558,-2.5558,-2.5558,-2.5558,-2.5558,-2.665,-2.6567,-2.6526,-2.641,-2.6353,-2.6265,-2.6219,-2.6155,-2.6092,-2.5978,-2.5904,-2.5849,-2.5765,-2.5662,-2.5577,-2.5552,-2.5518,-2.5522,-2.5492,-2.5522,-2.5523,-2.5524,-2.5542,-2.5516,-2.5515,-2.5465,-2.5465,-2.5465]}]]